AV279 Weather Reports


time (UTC)temp
F
wind
direction
speed
knots
gust
knots
rain 1hr
in
rain 24hr
in
rain mn
in
humidity
%
barometer
mb
20260510032019 53 90 3.5 7.8 0.00 0.00 0.00 84 1014.6
20260510031040 53 23 3.5 5.2 0.00 0.00 0.00 84 1014.6
20260510030019 53 23 0.9 1.7 0.00 0.00 0.00 85 1014.6
20260510025050 53 23 2.6 3.5 0.00 0.00 0.00 85 1014.6
20260510024020 53 45 3.5 5.2 0.00 0.00 0.00 85 1014.6
20260510023020 54 338 1.7 6.1 0.00 0.00 0.00 84 1014.7
20260510022030 54 23 2.6 3.5 0.00 0.00 0.00 84 1014.7
20260510021019 54 68 1.7 2.6 0.00 0.00 0.00 84 1014.8
20260510020020 54 23 1.7 3.5 0.00 0.00 0.00 84 1014.9
20260510015041 54 45 3.5 7.0 0.00 0.00 0.00 84 1014.9
20260510014041 54 0 5.2 8.7 0.00 0.00 0.00 83 1015.0
20260510013020 54 0 4.3 7.8 0.00 0.00 0.00 83 1015.0
20260510012101 54 0 2.6 4.3 0.00 0.00 0.00 83 1015.1
20260510011019 54 23 2.6 7.0 0.00 0.00 0.00 83 1015.1
20260510010019 54 23 4.3 9.6 0.00 0.00 0.00 82 1015.1
20260510005019 54 45 3.5 5.2 0.00 0.00 0.00 81 1015.2
20260510004019 54 23 3.5 5.2 0.00 0.00 0.00 81 1015.4
20260510003019 54 45 3.5 4.3 0.00 0.00 0.00 81 1015.6
20260510002019 54 45 1.7 2.6 0.00 0.00 0.00 80 1015.6
20260510001019 54 23 3.5 4.3 0.00 0.00 0.00 80 1015.6
20260510000019 54 0 2.6 4.3 0.00 0.00 0.00 79 1015.7
20260509235030 54 23 2.6 4.3 0.00 0.00 0.00 79 1015.7
20260509234019 54 23 3.5 5.2 0.00 0.00 0.00 78 1015.7
20260509233019 54 45 4.3 6.1 0.00 0.00 0.00 78 1015.8
20260509232042 54 23 3.5 4.3 0.00 0.00 0.00 77 1016.0
20260509231213 54 45 2.6 4.3 0.00 0.00 0.00 77 1015.8
20260509230820 55 23 2.6 4.3 0.00 0.00 0.00 77 1015.9
20260509225819 55 45 3.5 7.0 0.00 0.00 0.00 77 1015.9
20260509224819 55 45 5.2 8.7 0.00 0.00 0.00 76 1016.0
20260509223841 55 45 3.5 8.7 0.00 0.00 0.00 75 1016.0
20260509222819 55 23 5.2 8.7 0.00 0.00 0.00 75 1016.0
20260509221819 55 45 3.5 5.2 0.00 0.00 0.00 75 1015.9
20260509220819 55 23 3.5 5.2 0.00 0.00 0.00 74 1016.0
20260509215830 55 23 3.5 7.0 0.00 0.00 0.00 73 1015.9
20260509214830 55 0 5.2 7.8 0.00 0.00 0.00 73 1015.9
20260509213819 55 23 3.5 5.2 0.00 0.00 0.00 72 1016.0
20260509212819 55 45 1.7 3.5 0.00 0.00 0.00 71 1015.9
20260509211819 55 23 1.7 3.5 0.00 0.00 0.00 71 1015.9
20260509210841 56 45 2.6 4.3 0.00 0.00 0.00 71 1015.9
20260509205919 56 45 1.7 3.5 0.00 0.00 0.00 71 1015.9
20260509204819 56 23 1.7 3.5 0.00 0.00 0.00 71 1015.7
20260509203819 56 23 3.5 6.1 0.00 0.00 0.00 71 1015.7
20260509202839 56 23 3.5 7.0 0.00 0.00 0.00 72 1015.7
20260509201839 56 23 3.5 4.3 0.00 0.00 0.00 72 1015.4
20260509200819 56 45 2.6 4.3 0.00 0.00 0.00 72 1015.6
20260509195830 56 45 2.6 4.3 0.00 0.00 0.00 71 1015.6
20260509194819 57 23 2.6 6.1 0.00 0.00 0.00 71 1015.5
20260509193819 57 0 4.3 7.0 0.00 0.00 0.00 71 1015.5
20260509192819 57 23 3.5 6.1 0.00 0.00 0.00 71 1015.4
20260509191819 58 315 2.6 7.0 0.00 0.00 0.00 70 1015.4
20260509190819 58 45 2.6 5.2 0.00 0.00 0.00 69 1015.2
20260509190024 58 23 3.5 5.2 0.00 0.00 0.00 68 1015.2
20260509185150 59 45 4.3 7.0 0.00 0.00 0.00 68 1015.4
20260509184121 59 23 3.5 6.1 0.00 0.00 0.00 67 1015.3
20260509183139 59 45 5.2 7.8 0.00 0.00 0.00 67 1015.3
20260509182119 60 23 3.5 7.0 0.00 0.00 0.00 66 1015.2
20260509181140 60 23 2.6 4.3 0.00 0.00 0.00 65 1015.2
20260509180119 60 23 4.3 8.7 0.00 0.00 0.00 64 1015.2
20260509175140 61 45 6.1 8.7 0.00 0.00 0.00 65 1015.1
20260509174119 61 23 3.5 7.8 0.00 0.00 0.00 64 1015.0
20260509173119 61 0 6.1 14.8 0.00 0.00 0.00 64 1014.9
20260509172119 62 0 7.8 12.2 0.00 0.00 0.00 63 1015.0
20260509171130 62 45 4.3 7.8 0.00 0.00 0.00 62 1015.0
20260509170151 63 23 7.0 13.0 0.00 0.00 0.00 60 1015.0
20260509165130 63 45 6.1 13.9 0.00 0.00 0.00 61 1014.9
20260509164130 63 45 5.2 9.6 0.00 0.00 0.00 61 1015.1
20260509163316 63 23 4.3 7.8 0.00 0.00 0.00 61 1015.0
20260509162919 63 23 5.2 10.4 0.00 0.00 0.00 61 1015.0
20260509162132 64 0 4.3 7.8 0.00 0.00 0.00 61 1015.0
20260509161630 64 45 3.5 6.1 0.00 0.00 0.00 60 1015.1
20260509160629 64 23 4.3 8.7 0.00 0.00 0.00 58 1015.2
20260509155639 65 0 5.2 13.9 0.00 0.00 0.00 55 1015.1
20260509154711 65 23 7.8 10.4 0.00 0.00 0.00 54 1015.1
20260509153629 65 45 5.2 7.8 0.00 0.00 0.00 53 1015.2
20260509152619 65 45 7.8 10.4 0.00 0.00 0.00 54 1015.3
20260509151711 66 0 5.2 10.4 0.00 0.00 0.00 54 1015.3
20260509150618 66 23 7.8 13.0 0.00 0.00 0.00 53 1015.2
20260509145618 66 23 6.1 11.3 0.00 0.00 0.00 53 1015.0
20260509144640 66 23 7.8 14.8 0.00 0.00 0.00 54 1015.1
20260509143649 66 23 7.0 15.6 0.00 0.00 0.00 55 1015.1
20260509142629 67 338 7.8 13.0 0.00 0.00 0.00 55 1015.1
20260509141619 67 23 10.4 19.1 0.00 0.00 0.00 54 1015.4
20260509140619 67 23 6.1 10.4 0.00 0.00 0.00 53 1015.2
20260509135649 68 23 7.0 12.2 0.00 0.00 0.00 53 1015.2
20260509134619 68 23 4.3 9.6 0.00 0.00 0.00 52 1015.4
20260509133639 69 0 7.0 13.0 0.00 0.00 0.00 52 1015.4
20260509132639 70 45 7.8 16.5 0.00 0.00 0.00 50 1015.4
20260509131650 70 23 5.2 10.4 0.00 0.00 0.00 52 1015.4
20260509130620 69 23 7.0 12.2 0.00 0.00 0.00 52 1015.4
20260509125651 70 45 5.2 10.4 0.00 0.00 0.00 50 1015.4
20260509124639 70 45 9.6 16.5 0.00 0.00 0.00 49 1015.4
20260509123640 71 0 8.7 14.8 0.00 0.00 0.00 52 1015.6
20260509122629 71 0 7.0 11.3 0.00 0.00 0.00 52 1015.7
20260509121640 70 338 6.1 12.2 0.00 0.00 0.00 52 1015.8
20260509120618 70 45 6.1 11.3 0.00 0.00 0.00 50 1015.9
20260509115618 70 23 6.1 12.2 0.00 0.00 0.00 51 1015.9
20260509114629 70 0 7.0 12.2 0.00 0.00 0.00 50 1016.0
20260509113619 70 23 8.7 12.2 0.00 0.00 0.00 49 1016.2
20260509112618 70 45 3.5 7.0 0.00 0.00 0.00 50 1016.3
20260509111629 71 45 5.2 9.6 0.00 0.00 0.00 49 1016.5
20260509110621 73 23 6.1 8.7 0.00 0.00 0.00 45 1016.5
20260509105618 71 68 3.5 6.1 0.00 0.00 0.00 47 1016.5
20260509104640 70 23 4.3 9.6 0.00 0.00 0.00 48 1016.6
20260509103631 71 23 4.3 9.6 0.00 0.00 0.00 48 1016.8
20260509102618 69 90 5.2 9.6 0.00 0.00 0.00 48 1016.7
20260509101640 69 338 2.6 3.5 0.00 0.00 0.00 51 1016.7
20260509100639 69 45 6.1 9.6 0.00 0.00 0.00 49 1016.8
20260509095618 69 45 7.0 9.6 0.00 0.00 0.00 48 1016.8
20260509094631 68 158 2.6 4.3 0.00 0.00 0.00 51 1016.9
20260509093619 68 45 6.1 9.6 0.00 0.00 0.00 50 1016.9
20260509092618 68 23 6.1 10.4 0.00 0.00 0.00 51 1017.0
20260509091631 68 90 5.2 8.7 0.00 0.00 0.00 52 1017.0
20260509090631 67 45 4.3 9.6 0.00 0.00 0.00 52 1017.0
20260509085620 66 45 2.6 4.3 0.00 0.00 0.00 56 1017.0
20260509084650 66 45 3.5 5.2 0.00 0.00 0.00 56 1017.0
20260509083620 65 90 2.6 5.2 0.00 0.00 0.00 59 1017.0
20260509082620 65 45 3.5 4.3 0.00 0.00 0.00 60 1017.0
20260509081700 64 68 0.9 2.6 0.00 0.00 0.00 63 1017.1
20260509080630 64 0 3.5 7.0 0.00 0.00 0.00 64 1017.2
20260509075639 62 113 1.7 3.5 0.00 0.00 0.00 65 1017.1
20260509074620 62 45 3.5 6.1 0.00 0.00 0.00 66 1017.1
20260509073620 61 23 1.7 3.5 0.00 0.00 0.00 68 1017.2
20260509072620 60 45 1.7 2.6 0.00 0.00 0.00 68 1017.2
20260509071620 59 23 2.6 3.5 0.00 0.00 0.00 71 1017.2
20260509070641 58 23 2.6 4.3 0.00 0.00 0.00 71 1017.2
20260509065639 57 23 2.6 4.3 0.00 0.00 0.00 74 1017.2
20260509064620 55 113 2.6 6.1 0.00 0.00 0.00 76 1017.2
20260509063817 54 45 1.7 2.6 0.00 0.00 0.00 78 1017.2
20260509062620 53 23 2.6 3.5 0.00 0.00 0.00 79 1017.2
20260509061620 52 45 0.9 2.6 0.00 0.00 0.00 81 1017.2
20260509060620 51 0.0 0.0 0.00 0.00 0.00 81 1017.2
20260509055619 50 68 0.9 1.7 0.00 0.00 0.00 82 1017.1
20260509054620 50 45 0.9 1.7 0.00 0.00 0.00 83 1017.1
20260509053620 49 0.0 1.7 0.00 0.00 0.00 84 1017.1
20260509052620 49 45 0.9 0.9 0.00 0.00 0.00 85 1017.0
20260509051620 48 0.0 0.9 0.00 0.00 0.00 85 1016.9
20260509050631 48 68 0.9 1.7 0.00 0.00 0.00 86 1017.0
20260509045620 48 0.0 0.0 0.00 0.00 0.00 86 1016.9
20260509044640 48 90 0.9 1.7 0.00 0.00 0.00 86 1016.9
20260509043620 48 45 0.9 1.7 0.00 0.00 0.00 86 1016.8
20260509042619 48 68 0.9 1.7 0.00 0.00 0.00 86 1016.7
20260509041619 48 0.0 0.9 0.00 0.00 0.00 86 1016.6
20260509040620 48 113 0.9 2.6 0.00 0.00 0.00 87 1016.8
20260509035630 48 45 0.9 2.6 0.00 0.00 0.00 87 1016.8
20260509034620 48 0 0.9 1.7 0.00 0.00 0.00 86 1016.9
20260509033651 48 45 0.9 1.7 0.00 0.00 0.00 86 1016.9